KINEIS-2A

Last updated on Thu Sep 24 2026 00:03:12 GMT+0000 (Coordinated Universal Time)

1 62932U 25028E 26266.15261652 .00000770 00000+0 12623-3 0 9999 2 62932 98.1205 321.6758 0004109 198.0703 162.0360 14.73580260 87035
UTC large
Height (km)
Speed (km/s)
/
Latitude / Longitude
Inclination (degrees)
Orbital Period (minutes)
Azimuth
Elevation
Range (km)
Doppler Factor

Next 0 passes for location: London (51.5072 / 0.1276)

No passes found over London.
KINEIS-2A